Location: Unspecified
(0.0000°N, 0.0000°E)
Time: 02:17:48
(UTC+00:00)

Tiros 1 - Visible Passes

Search period start: 02 August 2015 00:00
Search period end: 12 August 2015 00:00
Orbit: 632 x 666 km, 48.4° (Epoch: 01 August)

Date Brightness Start Highest point End Pass type
(mag) Time Alt. Az. Time Alt. Az. Time Alt. Az.
02 Aug 8.0 19:10:24 10° NNW 19:14:29 32° NE 19:15:50 27° E visible
02 Aug 10.2 20:53:19 10° W 20:53:34 11° W 20:53:34 11° W visible
03 Aug 7.2 19:36:24 10° NW 19:40:59 72° SW 19:41:54 54° S visible
04 Aug 9.1 20:04:01 10° W 20:07:33 21° SW 20:08:01 20° SW visible
05 Aug 7.2 18:47:18 10° NW 18:51:55 80° SW 18:56:26 11° SE visible
06 Aug 9.7 05:20:13 10° SSE 05:22:58 16° SE 05:25:55 10° E visible
06 Aug 9.1 19:14:45 10° WNW 19:18:28 23° SW 19:22:03 10° S visible
08 Aug 9.7 04:31:28 10° SSE 04:33:51 14° SE 04:36:28 10° E visible
08 Aug 9.1 18:25:30 10° WNW 18:29:22 25° SW 18:33:09 10° S visible
09 Aug 8.1 04:56:24 12° SSW 05:00:30 44° SE 05:05:05 10° ENE visible
10 Aug 9.8 03:44:50 13° SE 03:44:50 13° SE 03:46:56 10° ESE visible
10 Aug 7.5 05:22:35 11° SW 05:26:59 53° NW 05:31:40 10° NNE visible
11 Aug 8.1 04:11:01 39° SE 04:11:24 40° SE 04:15:54 10° ENE visible
